Weather History for Delaware, OH

Change the Weather History Date:

Wednesday, September 12, 2012

  Actual Average Record
Temperature  
Mean Temperature 64 °F -  
Max Temperature 82 °F 76 °F 91 °F (1961)
Min Temperature 46 °F 51 °F 39 °F (1943)
Degree Days  
Heating Degree Days 1    
Growing Degree Days 14 (Base 50)    
Moisture  
Dew Point 52 °F    
Average Humidity 68    
Maximum Humidity 94    
Minimum Humidity 39    
Precipitation  
Precipitation 0.00 in - - ()
Sea Level Pressure  
Sea Level Pressure 30.26 in    
Wind  
Wind Speed 2 mph (SSW)    
Max Wind Speed 9 mph    
Max Gust Speed -    
Visibility 10 miles    
Events      
Averages and records for this station are not official NWS values.
T = Trace of Precipitation, MM = Missing Value Source: NWS Daily Summary

Daily Weather History Graph

Daily Weather History Graph

Search for Another Location

Airport:

Trip Planner

Search our weather history database for the weather conditions in past years. The results will help you decide how hot, cold, wet, or windy it might be!

Date:

Astronomy

Sep. 12, 2012 Rise Set
Actual Time 7:10 AM EDT 7:45 PM EDT
Civil Twilight 6:43 AM EDT 8:12 PM EDT
Nautical Twilight 6:11 AM EDT 8:45 PM EDT
Astronomical Twilight 5:37 AM EDT 9:18 PM EDT
Moon 3:26 AM EDT (9/12) 5:32 PM EDT (9/12)
Length of Visible Light 13h 29m
Length of Day
12h 34m
Waning Crescent, 14% of the Moon is Illuminated
Sep 12
Waning Crescent
Sep 15
New
Sep 22
First Quarter
Sep 29
Full
Oct 8
Last Quarter

Hourly Weather History & Observations

Time (EDT) Temp. Heat Index Dew Point Humidity Pressure Visibility Wind Dir Wind Speed Gust Speed Precip Events Conditions
12:34 AM 51.8 °F - 46.4 °F 82% 30.24 in 10.0 mi Calm Calm - N/A   Clear
12:54 AM 51.8 °F - 46.4 °F 82% 30.24 in 10.0 mi Calm Calm - N/A   Clear
1:14 AM 51.8 °F - 46.4 °F 82% 30.24 in 10.0 mi Calm Calm - N/A   Clear
1:34 AM - - - N/A% - - North - - N/A   Unknown
1:54 AM 50.0 °F - 44.6 °F 82% 30.24 in 10.0 mi South 3.5 mph - N/A   Unknown
2:14 AM 51.8 °F - 46.4 °F 82% 30.24 in 10.0 mi Calm Calm - N/A   Clear
2:34 AM 51.8 °F - 46.4 °F 82% 30.24 in 10.0 mi Calm Calm - N/A   Unknown
2:54 AM 51.8 °F - 46.4 °F 82% 30.24 in 10.0 mi Calm Calm - N/A   Clear
3:14 AM 50.0 °F - 46.4 °F 87% 30.25 in 10.0 mi Calm Calm - N/A   Clear
3:34 AM 51.8 °F - 46.4 °F 82% 30.25 in 10.0 mi Calm Calm - N/A   Clear
3:54 AM 50.0 °F - 46.4 °F 87% 30.25 in 10.0 mi Calm Calm - N/A   Clear
4:14 AM - - - N/A% 30.25 in - Calm Calm - N/A   Unknown
4:34 AM 50.0 °F - 46.4 °F 87% 30.25 in 10.0 mi Calm Calm - N/A   Clear
4:54 AM 48.2 °F - 44.6 °F 87% 30.25 in 10.0 mi Calm Calm - N/A   Clear
5:14 AM 48.2 °F - 44.6 °F 87% 30.26 in 10.0 mi Calm Calm - N/A   Clear
5:34 AM 50.0 °F - 46.4 °F 87% 30.26 in 10.0 mi Calm Calm - N/A   Unknown
5:54 AM 46.4 °F - 44.6 °F 93% 30.27 in 10.0 mi Calm Calm - N/A   Clear
6:14 AM 46.4 °F - 44.6 °F 93% 30.27 in 10.0 mi Calm Calm - N/A   Clear
6:34 AM 46.4 °F - 44.6 °F 93% 30.27 in 10.0 mi Calm Calm - N/A   Clear
6:54 AM 46.4 °F - 44.6 °F 93% 30.28 in 10.0 mi Calm Calm - N/A   Clear
7:14 AM 46.4 °F - 44.6 °F 93% 30.28 in 10.0 mi Calm Calm - N/A   Clear
7:34 AM 48.2 °F - 46.4 °F 93% 30.29 in 10.0 mi Calm Calm - N/A   Clear
7:54 AM 50.0 °F - 48.2 °F 94% 30.30 in 10.0 mi Calm Calm - N/A   Clear
8:14 AM 53.6 °F - 50.0 °F 88% 30.30 in 10.0 mi ESE 3.5 mph - N/A   Clear
8:34 AM 55.4 °F - 51.8 °F 88% 30.30 in 10.0 mi Calm Calm - N/A   Clear
8:54 AM 57.2 °F - 51.8 °F 82% 30.30 in 10.0 mi Calm Calm - N/A   Clear
9:14 AM 59.0 °F - 51.8 °F 77% 30.30 in 10.0 mi SSE 3.5 mph - N/A   Clear
9:34 AM 60.8 °F - 53.6 °F 77% 30.30 in 10.0 mi Calm Calm - N/A   Clear
9:54 AM - - - N/A% 30.31 in - Calm Calm - N/A   Unknown
10:14 AM 68.0 °F - 53.6 °F 60% 30.31 in 10.0 mi SSW 5.8 mph - N/A   Unknown
10:34 AM 68.0 °F - 53.6 °F 60% 30.31 in 10.0 mi SSW 4.6 mph - N/A   Unknown
10:53 AM - - - N/A% 30.31 in - North - - N/A   Unknown
11:14 AM 71.6 °F - 55.4 °F 57% 30.31 in 10.0 mi South 3.5 mph - N/A   Unknown
11:34 AM 73.4 °F - 55.4 °F 53% 30.30 in 10.0 mi SSW 4.6 mph - N/A   Clear
11:54 AM 75.2 °F - 55.4 °F 50% 30.30 in 10.0 mi South 3.5 mph - N/A   Clear
12:14 PM 77.0 °F - 55.4 °F 47% 30.30 in 10.0 mi South 5.8 mph - N/A   Clear
12:34 PM 77.0 °F - 53.6 °F 44% 30.29 in 10.0 mi SSW 4.6 mph - N/A   Clear
12:54 PM 78.8 °F - 53.6 °F 42% 30.29 in 10.0 mi WSW 6.9 mph - N/A   Clear
1:14 PM 78.8 °F - 55.4 °F 44% 30.28 in 10.0 mi South 6.9 mph - N/A   Clear
1:34 PM 78.8 °F - 55.4 °F 44% 30.28 in 10.0 mi SSE 5.8 mph - N/A   Unknown
1:54 PM 78.8 °F - 55.4 °F 44% 30.27 in 10.0 mi South 6.9 mph - N/A   Clear
2:14 PM 80.6 °F 80.5 °F 55.4 °F 42% 30.26 in 10.0 mi SW 5.8 mph - N/A   Clear
2:34 PM 80.6 °F 80.5 °F 55.4 °F 42% 30.25 in 10.0 mi WSW 3.5 mph - N/A   Clear
2:54 PM 80.6 °F 80.3 °F 53.6 °F 39% 30.24 in 10.0 mi South 3.5 mph - N/A   Clear
3:14 PM 80.6 °F 80.5 °F 55.4 °F 42% 30.23 in 10.0 mi SW 8.1 mph - N/A   Clear
3:34 PM 80.6 °F 80.3 °F 53.6 °F 39% 30.23 in 10.0 mi South 9.2 mph - N/A   Clear
3:54 PM 80.6 °F 80.3 °F 53.6 °F 39% 30.23 in 10.0 mi South 4.6 mph - N/A   Clear
4:14 PM 80.6 °F 80.3 °F 53.6 °F 39% 30.23 in 10.0 mi WSW 8.1 mph - N/A   Clear
4:34 PM 80.6 °F 80.3 °F 53.6 °F 39% 30.22 in 10.0 mi SW 5.8 mph - N/A   Clear
4:54 PM 82.4 °F 81.7 °F 55.4 °F 39% 30.21 in 10.0 mi WSW 5.8 mph - N/A   Clear
5:14 PM 80.6 °F 80.3 °F 53.6 °F 39% 30.21 in 10.0 mi WSW 6.9 mph - N/A   Clear
5:54 PM 80.6 °F 80.3 °F 53.6 °F 39% 30.21 in 10.0 mi WSW 4.6 mph - N/A   Clear
6:14 PM 78.8 °F - 53.6 °F 42% 30.21 in 10.0 mi SW 8.1 mph - N/A   Clear
6:34 PM 78.8 °F - 55.4 °F 44% 30.21 in 10.0 mi WSW 3.5 mph - N/A   Clear
6:54 PM 77.0 °F - 57.2 °F 50% 30.21 in 10.0 mi WSW 4.6 mph - N/A   Clear
7:14 PM 75.2 °F - 57.2 °F 53% 30.22 in - SW 3.5 mph - N/A   Unknown
7:34 PM 73.4 °F - 55.4 °F 53% 30.22 in 10.0 mi WSW 3.5 mph - N/A   Clear
7:54 PM 66.2 °F - 59.0 °F 78% 30.23 in 10.0 mi SSW 3.5 mph - N/A   Clear
8:14 PM 64.4 °F - 57.2 °F 77% 30.23 in 10.0 mi SSW 3.5 mph - N/A   Clear
8:34 PM 62.6 °F - 57.2 °F 82% 30.23 in 10.0 mi SSW 3.5 mph - N/A   Clear
8:54 PM 62.6 °F - 55.4 °F 77% 30.24 in 10.0 mi Calm Calm - N/A   Clear
9:14 PM 62.6 °F - 55.4 °F 77% 30.24 in 10.0 mi Calm Calm - N/A   Unknown
9:34 PM 64.4 °F - 55.4 °F 73% 30.25 in 10.0 mi Calm Calm - N/A   Clear
9:54 PM - - - N/A% - - North - - N/A   Unknown
10:14 PM 60.8 °F - 55.4 °F 82% 30.26 in 10.0 mi Calm Calm - N/A   Unknown
10:54 PM 60.8 °F - 53.6 °F 77% 30.26 in 10.0 mi Calm Calm - N/A   Clear
11:14 PM 59.0 °F - 53.6 °F 82% 30.26 in 10.0 mi Calm Calm - N/A   Clear
11:34 PM 59.0 °F - 53.6 °F 82% 30.26 in 10.0 mi Calm Calm - N/A   Clear
11:54 PM - - - N/A% - - North - - N/A   Unknown